Current Weather Conditions: station 63112

sailwx.info

Wind from 210 at 40 knots

Wave height 8.1 meters (26 feet), 9 second period

Air temperature 7.5° C
Visibility: greater than 2.2 NM
Dewpoint 1.2° C

Last reported at 2019-Dec-11 16:00 UTC.
Time now 2019-Dec-11 17:31 UTC

Location: N 61°06' E 001°00'.
View on Google Maps.

See reports from other nearby stations

  
Tides and Currents Weather Stations Pressure Air Temp Water Temp Dewpoint Dewpoint Depression Visibility Wind Speed Wind Dir Waves Ship Positions
date/time (UTC)wind fromknots sea level pressurealtimeterstation pressurevisibilityair tempwater tempwave heightnotes
2019-Dec-11 16:00 210 40 2.2 7.5 8.1
2019-Dec-11 15:00 210 36 2.2 7.4 7.9
2019-Dec-11 14:00 210 35 2.2 7.3 7.3
2019-Dec-11 13:00 210 34 5.4 7.1 7.5
2019-Dec-11 12:00 210 34 5.4 6.7 7.6
2019-Dec-11 11:00 220 34 5.4 7.3 6.3
2019-Dec-11 10:00 220 35 5.4 7.8 7.2
2019-Dec-11 09:00 220 36 5.4 8.0 7.1
2019-Dec-11 08:00 230 33 5.4 7.9 6.1
2019-Dec-11 07:00 230 33 5.4 8.4 6.1
2019-Dec-11 06:00 240 34 5.4 7.4 6.4
2019-Dec-11 05:00 240 33 10.8 8.4 6.4
2019-Dec-11 04:00 230 27 10.8 7.7 6.7
2019-Dec-11 03:00 240 34 10.8 9.5 6.1
2019-Dec-11 02:00 250 26 10.810.0 6.5
2019-Dec-11 01:00 240 28 10.8 9.4 6.1
2019-Dec-11 00:00 240 26 5.4 8.5 6.4
2019-Dec-10 23:00 230 28 10.8 9.4 6.8
2019-Dec-10 22:00 240 27 10.8 9.6 6.6
2019-Dec-10 21:00 240 25 10.8 9.7 6.7
2019-Dec-10 20:00 250 26 5.4 9.8 7.2
2019-Dec-10 19:00 250 26 5.410.4 8.0
2019-Dec-10 18:00 200 34 2.2 9.3 8.7
2019-Dec-10 17:00 200 36 1.1 8.8 8.8
2019-Dec-10 16:00 190 36 0.5 8.4 8.9
2019-Dec-10 15:00 190 40 0.5 8.2 7.7
2019-Dec-10 14:00 180 41 0.5 7.8 7.8
2019-Dec-10 13:00 180 41 0.5 7.7 7.5
2019-Dec-10 12:00 180 41 0.5 7.1 7.4
2019-Dec-10 11:00 180 44 1.1 6.9 6.7
2019-Dec-10 10:00 170 41 0.5 7.0 6.1
2019-Dec-10 09:00 180 40 0.5 7.2 5.3
2019-Dec-10 08:00 180 39 5.4 7.3 5.0
2019-Dec-10 07:00 180 35 5.4 6.9 4.2
2019-Dec-10 06:00 170 33 10.8 6.0 3.9
2019-Dec-10 05:00 180 31 2.2 4.6 3.6
2019-Dec-10 04:00 180 27 5.4 4.8 3.6
2019-Dec-10 03:00 180 22 10.8 4.9 3.5
2019-Dec-10 02:00 190 17 27.0 5.0 3.9
2019-Dec-10 01:00 190 12 10.8 4.9 3.8
2019-Dec-10 00:00 200 8 27.0 4.6 4.2
2019-Dec-09 23:00 190 4 27.0 4.6 4.4
2019-Dec-09 22:00 300 1 27.0 4.4 4.7
2019-Dec-09 21:00 310 6 27.0 4.4 4.7
2019-Dec-09 20:00 340 11 27.0 4.6 4.8
2019-Dec-09 19:00 350 13 27.0 4.0 5.2
2019-Dec-09 18:00 340 15 27.0 4.1 4.9
2019-Dec-09 17:00 350 21 27.0 3.8 5.5